Starlink 33814

operational
NORAD ID: 63582 Int'l Des: 2025-076 Owner: SPXS Country: US Constellation: starlink
LEOCIRCULAR

Starlink 33814について

説明を読み込み中...

リアルタイム位置

3D地球を読み込み中...

次回通過

高度履歴

Altitude vs Time

uPlot chart will show altitude changes over time

軌道要素

1 63582U 25076P 26036.32498000 .00056573 00000-0 20467-2 0 9994
2 63582 42.9990 144.2116 0001899 283.5492 76.5148 15.27626660 46886
Epoch: Feb 5, 2026 • Age: 8 hours

現在のステータス

高度 483.9 km
速度 7.63 km/s
衛星直下点 26.60°N, 89.66°W
打ち上げ日 Apr 14, 2025
運用期間 0.8 years
タイプ internet

技術仕様

分類 Payload
質量 575.00 kg
乾燥質量 530.00 kg
総質量 575.00 kg
長さ 0.30 m
直径 4.10 m
スパン 29.00 m
形状 Box + pan
製造者 SPXS
バスタイプ Starlink V2MO
フェーズステータス In Orbit
所有者/国 SPXS/US

大規模コンステレーション

Loading constellations...